Preview of NWS' New Version of Forecast
This preview is not operational and should not be used for support decisions.

Regional Weather Roundup (RWR)

Issued by National Weather Service (NWS)

                            
000
ASUS46 KPQR 190810
RWROR 

OREGON REGIONAL WEATHER ROUNDUP
NATIONAL WEATHER SERVICE PORTLAND OR
100 AM PDT FRI APR 19 2019

NOTE: "FAIR" INDICATES FEW OR NO CLOUDS BELOW 12,000 FEET WITH
NO SIGNIFICANT WEATHER AND/OR OBSTRUCTIONS TO VISIBILITY.

ORZ001>013-190900-
NORTHWEST OREGON

  
CITY           SKY/WX    TMP DP  RH WIND       PRES   REMARKS
ASTORIA        CLOUDY    54  50  86 CALM      30.06F                  
TILLAMOOK      CLOUDY    54  52  94 CALM      30.09S                  
NEWPORT        CLOUDY    52  50  93 CALM      30.12S FOG              
PORTLAND       CLOUDY    59  52  77 W9        30.05F                  
VANCOUVER WA   MOCLDY    59  52  77 W6        30.05F                  
SCAPPOOSE      MOCLDY    58  52  80 CALM      30.05S                  
HILLSBORO      CLOUDY    57  51  80 E5        30.05F                  
AURORA         CLOUDY    61  48  62 NE3       30.06F                  
MCMINNVILLE    CLOUDY    56  52  86 SW6       30.05S                  
SALEM          CLOUDY    58  50  75 E3        30.05S                  
CORVALLIS      PTCLDY    57  52  83 W6        30.07S                  
EUGENE         CLEAR     54  48  80 NW3       30.07S                  
$$

ORZ021-028-190900-
SOUTHWEST OREGON

  
CITY           SKY/WX    TMP DP  RH WIND       PRES   REMARKS
NORTH BEND     CLOUDY    54  53  97 NE5       30.12F FOG              
BROOKINGS      MOCLDY    53  52  96 CALM      30.08S                  
ROSEBURG       CLEAR     62  50  64 CALM      30.05F                  
SEXTON SUMMIT  CLEAR     55  48  77 N8        30.12F                  
GRANTS PASS    FAIR      59  52  77 CALM      30.06S                  
MEDFORD        CLEAR     59  50  72 CALM      30.04R                  
$$

ORZ014>016-041-190900-
COLUMBIA GORGE

  
CITY           SKY/WX    TMP DP  RH WIND       PRES   REMARKS
TROUTDALE      MOCLDY    60  51  72 W3        30.05S                  
HOOD RIVER     MOCLDY    57  50  77 MISG      30.02S                  
THE DALLES     MOCLDY    66  50  56 N5        29.99S                  
$$

ORZ029>031-041-044-049-050-061>064-502-503-505>511-190900-
EASTERN OREGON

  
CITY           SKY/WX    TMP DP  RH WIND       PRES   REMARKS
MADRAS         CLEAR     52  46  82 CALM      30.08S                  
REDMOND        CLEAR     51  44  77 CALM      30.08S                  
BEND           CLEAR     52  45  76 SW5       30.09F                  
PRINEVILLE     CLEAR     48  45  87 S6        30.09S                  
KLAMATH FALLS  CLEAR     44  40  85 NE3       30.13F                  
LAKEVIEW       CLEAR     42  38  85 NW3       30.17F                  
HERMISTON      MOCLDY    62  53  72 S5        29.98S                  
PENDLETON      PTCLDY    54  51  90 E7        30.01S                  
MEACHAM        CLEAR     40  36  86 CALM      30.10F                  
LA GRANDE      CLEAR     60  43  53 S13       30.09S                  
BAKER CITY     CLEAR     48  42  80 W3        30.13F                  
BURNS          CLEAR     47  40  76 W3        30.14F                  
ROME             N/A     50  41  71 SE7       30.15F                  
ONTARIO        CLEAR     51  44  77 NW3       30.13S                  
$$